Regional Weather Roundup
Issued by NWS

Home | Current Version | Previous Version | Graphics & Text | Print | Product List | Glossary Off
Versions: 1 2 3 4 5 6 7 8 9 10 11 12 13 14 15 16 17 18 19 20 21 22 23 24 25 26 27 28 29 30 31 32 33 34 35 36 37 38 39 40 41 42 43 44 45 46 47 48 49 50

000
ASUS43 KMKX 200621
RWRWI

WISCONSIN REGIONAL WEATHER ROUNDUP
NATIONAL WEATHER SERVICE MILWAUKEE/SULLIVAN WI
100 AM CDT MON OCT 20 2014

NOTE: "FAIR" INDICATES FEW OR NO CLOUDS BELOW 12,000 FEET WITH NO
SIGNIFICANT WEATHER AND/OR OBSTRUCTIONS TO VISIBILITY.

WIZ001-002-006>008-014>016-023>028-200700-
NORTHWEST WISCONSIN

CITY           SKY/WX    TMP DP  RH WIND       PRES   REMARKS
SUPERIOR ARPT  PTCLDY    51  42  70 NW3       29.82S
6HR MIN TEMP:  47; 6HR MAX TEMP:  57;

ASHLAND        PTCLDY    47  41  80 W5        29.81R
6HR MIN TEMP:  46; 6HR MAX TEMP:  54;

HAYWARD        CLEAR     50  41  71 N5        29.82R
6HR MIN TEMP:  40; 6HR MAX TEMP:  51;

SIREN          CLEAR     45  40  82 NW5       29.85R
6HR MIN TEMP:  44; 6HR MAX TEMP:  53;

CUMBERLAND     CLEAR     50  41  71 N9        29.83R
RICE LAKE      CLEAR     50  41  71 NW7       29.84R
6HR MIN TEMP:  42; 6HR MAX TEMP:  54;

CHETEK         CLEAR     49  43  81 NW3       29.82R
6HR MIN TEMP:  42; 6HR MAX TEMP:  51;

LADYSMITH      PTCLDY    48  42  80 NW8       29.80R
6HR MIN TEMP:  40; 6HR MAX TEMP:  49;

EAU CLAIRE     CLEAR     53  42  66 NW8       29.80R
6HR MIN TEMP:  44; 6HR MAX TEMP:  56;

MENOMONIE      CLEAR     53  42  66 W9        29.82R
6HR MIN TEMP:  45; 6HR MAX TEMP:  56;

NEW RICHMOND   CLEAR     51  42  69 NW9       29.85R
6HR MIN TEMP:  47; 6HR MAX TEMP:  53;

OSCEOLA        CLEAR     52  43  70 NW5       29.88R
6HR MIN TEMP:  50; 6HR MAX TEMP:  57;

$$

WIZ003>005-009-010-017-018-200700-
NORTH CENTRAL WISCONSIN

CITY           SKY/WX    TMP DP  RH WIND       PRES   REMARKS
MANITOWISH WTR PTCLDY    42  41  99 CALM      29.76R
6HR MIN TEMP:  39; 6HR MAX TEMP:  46;

ARBOR VITAE    CLEAR     41  39  94 CALM      29.76R
6HR MIN TEMP:  41; 6HR MAX TEMP:  46;

WOODRUFF       CLEAR     41  39  94 CALM      29.76R
6HR MIN TEMP:  41; 6HR MAX TEMP:  46;

RHINELANDER    PTCLDY    42  40  92 W5        29.75S
6HR MIN TEMP:  41; 6HR MAX TEMP:  50;

EAGLE RIVER    PTCLDY    40  40 100 CALM      29.74S FOG
6HR MIN TEMP:  40; 6HR MAX TEMP:  46;

LAND O LAKES   CLEAR     42  41  94 CALM      29.75S
6HR MIN TEMP:  42; 6HR MAX TEMP:  49;

PHILLIPS       CLEAR     46  42  86 NW3       29.76S
6HR MIN TEMP:  37; 6HR MAX TEMP:  51;

TOMAHAWK       MOCLDY    34  33  96 CALM      29.77R
6HR MIN TEMP:  34; 6HR MAX TEMP:  49;

MEDFORD        PTCLDY    40  39  97 W6        29.77R
6HR MIN TEMP:  37; 6HR MAX TEMP:  49;

MERRILL        FOG       34  34 100 CALM      29.76S VSB 1/2
$$

WIZ029-030-035-036-043>047-200700-
CENTRAL WISCONSIN

CITY           SKY/WX    TMP DP  RH WIND       PRES   REMARKS
WAUSAU         CLEAR     41  40  96 CALM      29.74F
6HR MIN TEMP:  41; 6HR MAX TEMP:  50;

MOSINEE        PTCLDY    43  41  93 W6        29.76F
MARSHFIELD     CLEAR     45  41  86 W5        29.75F
6HR MIN TEMP:  44; 6HR MAX TEMP:  53;

STEVENS POINT  CLEAR     37  37  99 CALM      29.76F
6HR MIN TEMP:  37; 6HR MAX TEMP:  52; 6HR PCP:  0.01;

WAUPACA        CLEAR     46  44  93 CALM      29.76F
6HR MIN TEMP:  44; 6HR MAX TEMP:  54;

WAUTOMA        MOCLDY    39  37  92 CALM      29.77F
6HR MIN TEMP:  39; 6HR MAX TEMP:  54;

WISC RAPIDS    CLEAR     41  40  96 CALM      29.77S FOG
6HR MIN TEMP:  42; 6HR MAX TEMP:  56;

CAMP DOUGLAS   CLEAR     49  48  97 W3        29.76F
6HR MIN TEMP:  49; 6HR MAX TEMP:  57;

$$

WIZ011>013-019>022-031-037>040-048>050-200700-
NORTHEAST WISCONSIN

CITY           SKY/WX    TMP DP  RH WIND       PRES   REMARKS
ANTIGO         MOCLDY    36  36 100 CALM      29.75F
6HR MIN TEMP:  35; 6HR MAX TEMP:  45;

SHAWANO        CLEAR     42  39  91 CALM      29.76S
6HR MIN TEMP:  42; 6HR MAX TEMP:  54;

OCONTO         CLOUDY    45  44  94 CALM      29.75F
6HR MIN TEMP:  44; 6HR MAX TEMP:  52;

STURGEON BAY   CLOUDY    50  43  76 SW8       29.75F
6HR MIN TEMP:  48; 6HR MAX TEMP:  50;

GREEN BAY      PTCLDY    47  43  86 CALM      29.76S
6HR MIN TEMP:  47; 6HR MAX TEMP:  53;

MANITOWOC      MOCLDY    48  44  86 SW5       29.77F
6HR MIN TEMP:  48; 6HR MAX TEMP:  53; 6HR PCP:  0.01;

APPLETON       PTCLDY    46  41  81 SW8       29.77S
CLINTONVILLE   CLEAR     41  37  87 CALM      29.76S
OSHKOSH        PTCLDY    49  43  80 SW8       29.76F
6HR MIN TEMP:  49; 6HR MAX TEMP:  53; 6HR PCP: TRACE;

$$

WIZ032>034-041-042-053>061-200700-
SOUTHWEST WISCONSIN

CITY           SKY/WX    TMP DP  RH WIND       PRES   REMARKS
LA CROSSE      CLEAR     49  45  86 CALM      29.79R
6HR MIN TEMP:  49; 6HR MAX TEMP:  60;

SPARTA         CLEAR     39  38  95 CALM      29.78S
6HR MIN TEMP:  39; 6HR MAX TEMP:  56;

VIROQUA        CLEAR     49  45  86 W6        29.79F
6HR MIN TEMP:  49; 6HR MAX TEMP:  54;

BOSCOBEL       CLEAR     49  44  83 S6        29.81S
6HR MIN TEMP:  47; 6HR MAX TEMP:  58;

PRAIRIE DU CHI CLEAR     53  44  70 W7        29.82S
6HR MIN TEMP:  52; 6HR MAX TEMP:  58;

PLATTEVILLE    CLEAR     48  44  84 CALM      29.83F
6HR MIN TEMP:  48; 6HR MAX TEMP:  53;

$$

WIZ056-057-062-063-064-067-068-200700-
SOUTH CENTRAL WISCONSIN

CITY           SKY/WX    TMP DP  RH WIND       PRES   REMARKS
REEDSBURG      CLEAR     51  44  77 W6        29.78S
6HR MIN TEMP:  50; 6HR MAX TEMP:  54;

BARABOO/DELLS  CLEAR     49  42  75 SW5       29.78S
6HR MIN TEMP:  49; 6HR MAX TEMP:  54;

LONE ROCK      CLEAR     49  40  71 CALM      29.80S
6HR MIN TEMP:  46; 6HR MAX TEMP:  60;

MINERAL POINT  FAIR      52  43  71 SW6       29.81F
MADISON        PTCLDY    53  43  68 SW7       29.79F
6HR MIN TEMP:  52; 6HR MAX TEMP:  55; 6HR PCP: TRACE;

MIDDLETON      PTCLDY    52  42  68 SW12      29.80F
6HR MIN TEMP:  52; 6HR MAX TEMP:  54;

WATERTOWN      PTCLDY    48  43  81 SW9       29.79F
6HR MIN TEMP:  47; 6HR MAX TEMP:  50;

MONROE         CLEAR     50  43  76 SW16      29.81F
JANESVILLE     CLEAR     50  41  71 SW12      29.83F
$$

WIZ051-052-058>065-066-070>072-200700-
SOUTHEAST WISCONSIN

CITY           SKY/WX    TMP DP  RH WIND       PRES   REMARKS
MILWAUKEE      MOCLDY    51  42  71 SW13      29.81F
6HR MIN TEMP:  50; 6HR MAX TEMP:  52; 6HR PCP: TRACE;

WAUKESHA       MOCLDY    48  41  76 SW7       29.81F
MILWAUKEE/TIMM MOCLDY    50  41  71 SW8       29.81F
RACINE         MOCLDY    52  42  69 SW12      29.83F
6HR MIN TEMP:  50; 6HR MAX TEMP:  53; 6HR PCP: TRACE;

BURLINGTON     PTCLDY    49  42  75 SW13G18   29.82F
6HR MIN TEMP:  47; 6HR MAX TEMP:  50;

KENOSHA        MOCLDY    52  43  71 SW13      29.83F
6HR MIN TEMP:  49; 6HR MAX TEMP:  53; 6HR PCP: TRACE;

FOND DU LAC    PTCLDY    49  42  77 SW12      29.77F
6HR MIN TEMP:  49; 6HR MAX TEMP:  53; 6HR PCP: TRACE;

SHEBOYGAN      MOCLDY    50  43  77 SW9       29.78F
6HR MIN TEMP:  49; 6HR MAX TEMP:  53; 6HR PCP:  0.02;

WEST BEND      MOCLDY    50  41  71 SW9       29.79F
JUNEAU         PTCLDY    45  41  86 SW8       29.80F
6HR MIN TEMP:  45; 6HR MAX TEMP:  51;

$$

LSZ147-162-200700-
LAKE SUPERIOR

STATION/POSITION TIME  TEMP    WIND        PRES    WAVE
                       AIR SEA DIR/SP/G            HT/PER
                 (UTC) (F)     (DEG/KT/KT) (MB)    (FT/S)
W MID LAKE BUOY  0550   47 46   10/  6/  6 1008.4R   1
DEVILS ISLAND    0600   51     330/ 13/ 15 1009.1R
PORT WING        0540   52     280/  5/  7 1009.8R
SAXON HARBOR     0500   53     310/ 10/ 11 1008.5R
$$

LMZ867-665-643>646-200700-
LAKE MICHIGAN

STATION/POSITION TIME  TEMP    WIND        PRES    WAVE



USA.gov is the U.S. government's official web portal to all federal, state and local government web resources and services.